| time (UTC) | temp F | wind direction | speed knots | gust knots | rain 1hr in | rain 24hr in | rain mn in | humidity % | barometer mb |
| 20260503221555 | 93 | 270 | 7.0 | 15.6 | 0.00 | 0.00 | 0.00 | 21 | 1003.0 |
| 20260503220042 | 91 | 346 | 7.0 | 18.2 | 0.00 | 0.00 | 0.00 | 22 | 1003.3 |
| 20260503214539 | 95 | 212 | 7.0 | 11.3 | 0.00 | 0.00 | 0.00 | 18 | 1003.4 |
| 20260503213041 | 95 | 225 | 3.5 | 14.8 | 0.00 | 0.00 | 0.00 | 13 | 1003.7 |
| 20260503211538 | 95 | 162 | 9.6 | 21.7 | 0.00 | 0.00 | 0.00 | 13 | 1003.6 |
| 20260503210018 | 95 | 165 | 12.2 | 20.0 | 0.00 | 0.00 | 0.00 | 13 | 1003.7 |
| 20260503204523 | 95 | 189 | 8.7 | 18.2 | 0.00 | 0.00 | 0.00 | 12 | 1003.8 |
| 20260503203100 | 95 | 200 | 14.8 | 19.1 | 0.00 | 0.00 | 0.00 | 11 | 1003.9 |
| 20260503201558 | 96 | 198 | 14.8 | 20.0 | 0.00 | 0.00 | 0.00 | 11 | 1004.2 |
| 20260503200038 | 95 | 173 | 13.0 | 19.1 | 0.00 | 0.00 | 0.00 | 10 | 1004.3 |
| 20260503194540 | 95 | 186 | 10.4 | 19.1 | 0.00 | 0.00 | 0.00 | 11 | 1004.3 |
| 20260503193018 | 96 | 203 | 13.0 | 21.7 | 0.00 | 0.00 | 0.00 | 10 | 1004.6 |
| 20260503191517 | 96 | 181 | 14.8 | 18.2 | 0.00 | 0.00 | 0.00 | 10 | 1004.6 |
| 20260503190055 | 95 | 221 | 3.5 | 13.0 | 0.00 | 0.00 | 0.00 | 12 | 1005.0 |
| 20260503184551 | 95 | 126 | 4.3 | 11.3 | 0.00 | 0.00 | 0.00 | 12 | 1005.2 |
| 20260503183031 | 94 | 130 | 7.8 | 12.2 | 0.00 | 0.00 | 0.00 | 12 | 1005.7 |
| 20260503181526 | 93 | 86 | 4.3 | 11.3 | 0.00 | 0.00 | 0.00 | 13 | 1005.8 |
| 20260503180004 | 92 | 132 | 1.7 | 7.8 | 0.00 | 0.00 | 0.00 | 12 | 1006.1 |
| 20260503174602 | 92 | 125 | 3.5 | 7.0 | 0.00 | 0.00 | 0.00 | 12 | 1006.2 |
| 20260503173039 | 91 | 111 | 4.3 | 7.0 | 0.00 | 0.00 | 0.00 | 12 | 1006.1 |
| 20260503171544 | 90 | 128 | 2.6 | 7.8 | 0.00 | 0.00 | 0.00 | 13 | 1006.2 |
| 20260503081538 | 85 | 283 | 5.2 | 10.4 | 0.00 | 0.00 | 0.00 | 11 | 1005.6 |
| 20260503071502 | 85 | 317 | 6.1 | 11.3 | 0.00 | 0.00 | 0.00 | 12 | 1005.9 |
| 20260503060130 | 86 | 279 | 7.8 | 12.2 | 0.00 | 0.00 | 0.00 | 12 | 1006.5 |
| 20260503054601 | 86 | 321 | 7.8 | 12.2 | 0.00 | 0.00 | 0.00 | 13 | 1006.4 |
| 20260503053057 | 87 | 317 | 7.8 | 13.9 | 0.00 | 0.00 | 0.00 | 13 | 1006.2 |
| 20260503051538 | 87 | 306 | 8.7 | 15.6 | 0.00 | 0.00 | 0.00 | 13 | 1006.0 |
| 20260503050041 | 87 | 296 | 8.7 | 14.8 | 0.00 | 0.00 | 0.00 | 13 | 1006.0 |
| 20260503044521 | 87 | 294 | 8.7 | 13.0 | 0.00 | 0.00 | 0.00 | 14 | 1005.9 |
| 20260503043020 | 87 | 314 | 7.8 | 14.8 | 0.00 | 0.00 | 0.00 | 14 | 1005.7 |
| 20260503041502 | 88 | 303 | 4.3 | 8.7 | 0.00 | 0.00 | 0.00 | 13 | 1005.6 |
| 20260503040121 | 88 | 290 | 5.2 | 9.6 | 0.00 | 0.00 | 0.00 | 14 | 1005.7 |
| 20260503034543 | 89 | 279 | 5.2 | 9.6 | 0.00 | 0.00 | 0.00 | 15 | 1005.4 |
| 20260503033042 | 89 | 281 | 5.2 | 10.4 | 0.00 | 0.00 | 0.00 | 16 | 1005.4 |
| 20260503031525 | 90 | 277 | 7.8 | 13.9 | 0.00 | 0.00 | 0.00 | 17 | 1005.1 |
| 20260503030024 | 91 | 298 | 1.7 | 3.5 | 0.00 | 0.00 | 0.00 | 13 | 1005.1 |
| 20260503024506 | 91 | 69 | 3.5 | 7.8 | 0.00 | 0.00 | 0.00 | 11 | 1004.7 |
| 20260503023005 | 92 | 74 | 6.1 | 9.6 | 0.00 | 0.00 | 0.00 | 10 | 1004.4 |
| 20260503021547 | 93 | 72 | 4.3 | 8.7 | 0.00 | 0.00 | 0.00 | 10 | 1004.2 |
| 20260503020045 | 93 | 69 | 7.0 | 13.0 | 0.00 | 0.00 | 0.00 | 9 | 1004.1 |
| 20260503014528 | 94 | 101 | 6.1 | 9.6 | 0.00 | 0.00 | 0.00 | 10 | 1004.1 |
| 20260503013031 | 95 | 86 | 4.3 | 9.6 | 0.00 | 0.00 | 0.00 | 9 | 1004.1 |
| 20260503011509 | 95 | 82 | 7.0 | 9.6 | 0.00 | 0.00 | 0.00 | 9 | 1004.1 |
| 20260503010009 | 96 | 95 | 6.1 | 10.4 | 0.00 | 0.00 | 0.00 | 9 | 1004.1 |
| 20260503004551 | 96 | 72 | 7.0 | 13.0 | 0.00 | 0.00 | 0.00 | 9 | 1004.2 |
| 20260503003051 | 96 | 88 | 6.1 | 12.2 | 0.00 | 0.00 | 0.00 | 9 | 1004.3 |
| 20260503001543 | 96 | 118 | 6.1 | 12.2 | 0.00 | 0.00 | 0.00 | 9 | 1004.1 |
| 20260503000032 | 97 | 111 | 5.2 | 15.6 | 0.00 | 0.00 | 0.00 | 9 | 1004.2 |
| 20260502234522 | 96 | 107 | 5.2 | 8.7 | 0.00 | 0.00 | 0.00 | 8 | 1004.4 |
| 20260502233012 | 97 | 101 | 6.1 | 13.0 | 0.00 | 0.00 | 0.00 | 8 | 1004.6 |
| 20260502231552 | 97 | 105 | 7.8 | 15.6 | 0.00 | 0.00 | 0.00 | 8 | 1004.7 |
| 20260502230051 | 97 | 67 | 7.8 | 12.2 | 0.00 | 0.00 | 0.00 | 8 | 1004.8 |
| 20260502224533 | 97 | 77 | 6.1 | 12.2 | 0.00 | 0.00 | 0.00 | 8 | 1005.1 |
| 20260502223030 | 97 | 83 | 7.8 | 11.3 | 0.00 | 0.00 | 0.00 | 8 | 1005.6 |